Hourly Data Report for October 31, 2015

All times are specified in Local Standard Time (LST). Add 1 hour to adjust for Daylight Saving Time where and when it is observed.

ST LEONARD CS
NEW BRUNSWICK

47°09'28.050" N
67°49'55.014" W
245.00 m
810I001
71019
WIY

Download Data

Hourly Data (October 2015)
Hourly Data Report for October 31, 2015
Temp Definition
°C
Dew Point Temp Definition
°C
Rel Hum Definition
%
Wind Dir Definition
10's deg

Wind Spd Definition
km/h
Visibility Definition
km
Stn Press Definition
kPa
Hmdx Definition


Wind Chill Definition


Weather Definition


TIME
00:00 0.1 -6.2 62 30 27   98.20     LegendNANA
01:00 0.0 -6.0 64 30 22   98.32   -6 LegendNANA
02:00 -0.2 -6.3 63 30 24   98.39   -6 LegendNANA
03:00 -1.1 -6.6 66 30 24   98.46   -7 LegendNANA
04:00 -1.3 -6.4 68 30 19   98.52   -7 LegendNANA
05:00 -2.1 -6.2 73 30 13   98.64   -7 LegendNANA
06:00 -2.0 -6.1 74 30 14   98.67   -7 LegendNANA
07:00 -2.8 -6.3 77 30 12   98.66   -7 LegendNANA
08:00 -2.3 -5.6 78 29 15   98.76   -7 LegendNANA
09:00 -0.7 -5.3 71 29 16   98.83   -5 LegendNANA
10:00 0.6 -5.6 63 28 18   98.88     LegendNANA
11:00 1.5 -6.1 57 27 18   98.89     LegendNANA
12:00 2.7 -6.3 52 27 17   98.85     LegendNANA
13:00 4.0 -5.6 49 26 13   98.86     LegendNANA
14:00 4.7 -6.1 45 29 17   98.87     LegendNANA
15:00 5.2 -6.6 42 24 6   98.80     LegendNANA
16:00 5.5 -6.9 41 24 8   98.79     LegendNANA
17:00 4.5 -5.5 48 20 6   98.81     LegendNANA
18:00 3.3 -4.2 58 17 7   98.84     LegendNANA
19:00 2.8 -3.9 61 16 6   98.81     LegendNANA
20:00 1.9 -4.4 63 20 7   98.85     LegendNANA
21:00 0.2 -3.6 75 7 3   98.79     LegendNANA
22:00 0.1 -2.8 81 15 5   98.77     LegendNANA
23:00 0.7 -2.7 78 14 5   98.79     LegendNANA

Notes on Data Quality.

Legend

  • E = Estimated
  • M = Missing
  • NA = Not Available
  • ‡ = Partner data that is not subject to review by the National Climate Archives
Date modified: